Location: Lafig�re
(44.4503°N, 4.0357°E)
Time: 00:50:17
(UTC+00:00)

Transit 4A - Pass Details

Date: 22 January 2021
Orbit: 866 x 979 km, 66.8° (Epoch: 24 February)

Event Time Altitude Azimuth Distance (km) Brightness Sun altitude
Rises 03:57:40 0° 328° (NNW) 3,633 - -34.5°
Reaches altitude 10° 04:00:16 10° 329° (NNW) 2,669 - -34.0°
Maximum altitude 04:06:29 84° 58° (ENE) 934 - -32.9°
Exits shadow 04:08:15 49° 141° (SE) 1,164 8.5 -32.6°
Drops below altitude 10° 04:12:29 10° 147° (SSE) 2,573 10.5 -31.8°
Sets 04:14:57 0° 148° (SSE) 3,495 11.3 -31.4°
